Location: Unspecified
(0.0000°N, 0.0000°E)
Time: 23:42:14
(UTC+00:00)

SR - Visible Passes

Search period start: 01 October 2020 00:00
Search period end: 11 October 2020 00:00
Orbit: 583 x 873 km, 66.7° (Epoch: 01 October)

Date Brightness Start Highest point End Pass type
(mag) Time Alt. Az. Time Alt. Az. Time Alt. Az.
01 Oct ? 18:24:49 10° NNE 18:29:24 29° ENE 18:34:16 10° SE visible
01 Oct ? 20:07:18 10° WNW 20:11:17 20° WSW 20:15:27 10° SSW visible
02 Oct ? 19:16:20 10° NW 19:21:33 49° WSW 19:27:06 10° S visible
03 Oct ? 18:26:34 10° NNW 18:31:54 67° ENE 18:37:37 10° SSE visible
04 Oct ? 19:19:58 10° WNW 19:24:10 22° WSW 19:28:33 10° SSW visible
05 Oct ? 18:29:09 10° NNW 18:34:26 54° WSW 18:40:05 10° S visible
06 Oct ? 05:16:11 10° SSE 05:19:41 21° ESE 05:23:01 10° ENE visible
07 Oct ? 18:32:40 10° WNW 18:37:03 24° WSW 18:41:39 10° SSW visible
08 Oct ? 05:17:41 10° S 05:22:15 54° ESE 05:26:30 10° NNE visible
09 Oct ? 04:29:16 10° SSE 04:32:32 19° ESE 04:35:39 10° ENE visible
09 Oct ? 18:38:48 10° WSW 18:39:43 10° WSW 18:40:38 10° WSW visible
10 Oct ? 05:20:13 10° SSW 05:24:44 53° WNW 05:28:56 10° N visible
